Date,TemperatureHighF,TemperatureAvgF,TemperatureLowF,DewpointHighF,DewpointAvgF,DewpointLowF,HumidityHigh,HumidityAvg,HumidityLow,PressureMaxIn,PressureMinIn,WindSpeedMaxMPH,WindSpeedAvgMPH,GustSpeedMaxMPH,PrecipitationSumIn
2013-9-1,73.9,65.9,57.7,67.9,56.8,46.3,89,73,44,29.12,28.97,6,1,10,0.29
2013-9-2,60.4,56.0,51.4,46.3,39.7,36.2,66,55,45,29.27,29.09,8,2,15,0.00
2013-9-3,71.6,59.0,46.8,51.4,41.6,38.6,83,55,31,29.30,29.18,6,1,11,0.00
2013-9-4,64.6,58.2,49.1,49.8,36.9,25.1,73,47,25,29.44,29.18,7,1,10,0.00
2013-9-5,65.1,53.0,40.3,41.8,32.4,24.1,65,46,35,29.59,29.44,5,0,8,0.00
2013-9-6,73.2,60.7,48.4,51.4,42.0,32.1,66,51,41,29.47,29.21,7,1,8,0.00
2013-9-7,79.7,68.8,58.3,65.6,54.0,46.2,79,60,45,29.33,29.12,7,1,10,0.21
2013-9-8,67.5,58.4,48.7,53.2,43.0,37.1,81,58,41,29.44,29.27,5,0,8,0.00
2013-9-9,68.9,62.8,53.6,61.4,52.9,37.8,79,70,55,29.30,28.97,4,0,10,0.00
2013-9-10,83.1,71.7,66.0,69.5,57.8,47.8,88,64,33,29.18,28.97,8,1,17,0.12
2013-9-11,77.2,67.6,60.4,61.4,52.0,45.4,80,59,36,29.21,29.15,8,1,10,0.00
2013-9-12,62.1,56.1,49.3,50.2,41.6,34.4,79,59,40,29.39,29.18,8,2,13,0.00
2013-9-13,58.5,50.3,40.6,39.2,31.2,24.3,68,49,34,29.47,29.36,7,1,10,0.00
2013-9-14,66.6,51.6,36.1,41.3,31.1,20.4,72,47,30,29.39,29.21,7,1,12,0.00
2013-9-15,59.0,54.2,40.5,49.4,39.1,26.5,71,57,48,29.47,29.18,8,1,13,0.08
2013-9-16,56.3,45.4,34.5,37.9,29.0,23.2,74,54,38,29.68,29.47,4,0,7,0.00
2013-9-17,62.6,48.0,32.4,46.4,31.7,18.8,75,54,42,29.56,29.36,5,1,10,0.00
2013-9-18,64.9,58.4,49.1,59.6,50.5,35.6,86,75,57,29.36,29.12,4,0,7,0.21
2013-9-19,72.5,66.1,62.2,68.8,62.0,56.3,95,87,76,29.15,28.94,6,1,10,0.25
2013-9-20,70.3,65.7,55.2,67.0,56.7,38.1,93,75,43,29.00,28.88,7,1,13,0.00
2013-9-21,55.2,49.9,42.8,43.6,33.5,25.8,79,54,39,29.15,28.97,8,1,10,0.00
2013-9-22,53.1,47.4,41.2,37.0,32.4,27.9,70,56,45,29.30,29.15,4,0,6,0.00
2013-9-23,57.6,48.0,38.3,43.3,32.4,24.9,74,55,43,29.39,29.27,5,0,8,0.00
2013-9-24,62.8,48.6,34.9,52.0,34.7,23.6,80,59,47,29.30,29.21,5,0,6,0.00
2013-9-25,63.3,52.9,40.3,53.2,39.1,30.1,84,61,44,29.27,29.21,4,0,6,0.00
2013-9-26,66.0,52.0,39.4,57.0,38.3,29.8,85,61,41,29.33,29.21,4,0,8,0.00
2013-9-27,68.7,55.8,45.3,58.9,43.1,32.3,86,63,47,29.39,29.27,5,0,8,0.00
2013-9-28,67.6,61.0,52.2,54.7,48.9,40.3,85,66,48,29.27,28.97,7,2,12,0.12
2013-9-29,61.9,54.1,43.7,50.5,42.9,35.6,84,67,51,29.21,29.03,5,0,8,0.04
2013-9-30,64.9,53.6,43.7,51.4,39.2,35.6,84,61,34,29.15,28.97,6,1,10,0.00